Find OVS-2

NORAD ID: 43440 Int'l Des: 2018-040 Owner: ZHUORB Country: CN operational
LEOCIRCULARRETROGRADESSO

Live Position

Loading 3D Globe...

About OVS-2

Description loading...

Upcoming Passes

Passes for default location (London). Set your location on the main map for personalized predictions.

Altitude History

Loading altitude history...

Two-Line Element Set

1 43440U 18040B 26107.32395044 .00004206 00000-0 17514-3 0 9997
2 43440 97.0440 128.1847 0005744 108.0454 252.1411 15.24224963443447
Epoch: Apr 17, 2026 • Age: 6 hours

Current Status

Altitude 496.3 km
Velocity 7.62 km/s
Sub-Earth Point 6.50°N, 70.33°E
Launch Date Apr 26, 2018
Age 7.9 years
Type other

Technical Details

Classification Payload
Mass 95.00 kg
Dry Mass 95.00 kg
Total Mass 95.00 kg
Length 0.50 m
Diameter 0.50 m
Span 1.00 m
Shape Box
Manufacturer HARB
Bus Type OVS-1
Phase Status In Orbit
Owner/State ZHUORB/CN

Most Searched